HOP487 KBWI-KDCA

Flight info

Callsign HOP487
Flight time 0h 10m
Altitude 8500
Route DCT ZIXUS DCT PUNKIN
Aircraft C25C/L-SDFGRWYL/L

Departure

Time 2026-04-22 23:22
Airport Baltimore/Washington International Thurgood Marshall Airport (KBWI)

Arrival

Time 2026-04-22 23:33
Airport Ronald Reagan Washington National Airport (KDCA)
Time Latitude Longitude Altitude Speed Heading
2026-04-22 23:10 39.18272 -76.67444 148 ft 0 kts 324°
2026-04-22 23:18 39.18285 -76.67461 149 ft 8 kts 302°
2026-04-22 23:19 39.18248 -76.67562 152 ft 15 kts 235°
2026-04-22 23:19 39.18193 -76.67675 155 ft 17 kts 264°
2026-04-22 23:19 39.18283 -76.67791 155 ft 22 kts 324°
2026-04-22 23:19 39.18421 -76.67920 156 ft 25 kts 323°
2026-04-22 23:20 39.18527 -76.68019 153 ft 0 kts 324°
2026-04-22 23:21 39.18527 -76.68020 153 ft 2 kts 324°
2026-04-22 23:21 39.18556 -76.68142 153 ft 14 kts 229°
2026-04-22 23:21 39.18473 -76.68139 153 ft 13 kts 147°
2026-04-22 23:22 39.18203 -76.67889 157 ft 103 kts 142°
2026-04-22 23:22 39.17481 -76.67212 685 ft 139 kts 141°
2026-04-22 23:22 39.16604 -76.66725 1703 ft 149 kts 176°
2026-04-22 23:22 39.15563 -76.66767 3239 ft 154 kts 200°
2026-04-22 23:23 39.14556 -76.67752 3947 ft 218 kts 240°
2026-04-22 23:23 39.13821 -76.69864 4005 ft 300 kts 251°
2026-04-22 23:23 39.13096 -76.72660 4032 ft 349 kts 253°
2026-04-22 23:23 39.12375 -76.75681 4027 ft 355 kts 254°
2026-04-22 23:24 39.11658 -76.78734 4022 ft 357 kts 254°
2026-04-22 23:24 39.10958 -76.81694 4017 ft 327 kts 254°
2026-04-22 23:24 39.10314 -76.84347 4018 ft 294 kts 254°
2026-04-22 23:24 39.09716 -76.86755 4012 ft 272 kts 253°
2026-04-22 23:25 39.09145 -76.88992 3985 ft 255 kts 253°
2026-04-22 23:25 39.08547 -76.91090 3983 ft 243 kts 250°
2026-04-22 23:25 39.08126 -76.92405 4002 ft 236 kts 247°
2026-04-22 23:25 39.07243 -76.94162 4008 ft 230 kts 239°
2026-04-22 23:26 39.05971 -76.96301 4007 ft 225 kts 231°
2026-04-22 23:26 39.04884 -76.97732 4006 ft 223 kts 227°
2026-04-22 23:26 39.03790 -76.99123 4007 ft 220 kts 228°
2026-04-22 23:26 39.02775 -77.00564 4007 ft 216 kts 237°
2026-04-22 23:27 39.02051 -77.02226 4006 ft 211 kts 249°
2026-04-22 23:27 39.01698 -77.03400 4005 ft 206 kts 251°
2026-04-22 23:27 39.01199 -77.05087 4009 ft 197 kts 251°
2026-04-22 23:27 39.00740 -77.06676 4002 ft 188 kts 253°
2026-04-22 23:28 39.00374 -77.08231 4004 ft 168 kts 253°
2026-04-22 23:28 39.00030 -77.09349 4296 ft 113 kts 251°
2026-04-22 23:28 38.99726 -77.10230 4230 ft 102 kts 252°
2026-04-22 23:28 38.99447 -77.11078 4013 ft 107 kts 251°
2026-04-22 23:29 38.99155 -77.12021 3603 ft 120 kts 252°
2026-04-22 23:29 38.98855 -77.12991 3389 ft 115 kts 242°
2026-04-22 23:29 38.98140 -77.13686 2638 ft 146 kts 207°
2026-04-22 23:29 38.97202 -77.13853 2416 ft 133 kts 177°
2026-04-22 23:30 38.96282 -77.13617 2040 ft 134 kts 171°
2026-04-22 23:30 38.95347 -77.13380 1775 ft 147 kts 171°
2026-04-22 23:30 38.94372 -77.12974 1760 ft 151 kts 149°
2026-04-22 23:30 38.93602 -77.11975 1632 ft 159 kts 133°
2026-04-22 23:31 38.92856 -77.10941 1596 ft 160 kts 139°
2026-04-22 23:31 38.91990 -77.10020 1370 ft 165 kts 146°
2026-04-22 23:31 38.91092 -77.09153 1371 ft 155 kts 146°
2026-04-22 23:31 38.90250 -77.08383 1195 ft 146 kts 147°
2026-04-22 23:32 38.89446 -77.07644 1029 ft 138 kts 149°
2026-04-22 23:32 38.88639 -77.07067 922 ft 130 kts 148°
2026-04-22 23:32 38.87964 -77.06256 706 ft 135 kts 136°
2026-04-22 23:32 38.87304 -77.05457 485 ft 128 kts 143°
2026-04-22 23:33 38.86612 -77.04620 219 ft 164 kts 123°
2026-04-22 23:33 38.86389 -77.04170 20 ft 1 kts 295°
2026-04-22 23:33 38.86388 -77.04171 15 ft 0 kts 307°